Find Starlink 11135

NORAD ID: 60048 Int'l Des: 2024-112 Owner: SPXS Country: US Constellation: starlink operational
LEOCIRCULAR

当前视图

正在加载3D地球...

About Starlink 11135

Starlink 11135 (NORAD 60048) is a starlink constellation satellite (v2 mini d2c) launched Jun 8, 2024 by SPXS of US. It operates in LEO, CIRCULAR orbit with a mass of 960.00 kg.

关于 Starlink 11135

正在加载描述...

即将过境

Passes for default location (London). Set your location on the main map for personalized predictions.

高度历史

Loading altitude history...

两行轨道根数

1 60048U 24112L 26176.02262190 -.00000819 00000-0 -19016-5 0 9994
2 60048 53.1584 96.8215 0001104 57.3743 302.7381 15.69699605117843
Epoch: Jun 25, 2026 • Age: 21 hours

当前状态

高度 360.1 km
速度 7.69 km/s
星下点 1.70°N, 149.54°W
发射日期 Jun 8, 2024
运行时间 2 years
类型 internet

技术详情

分类 Payload
质量 960.00 kg
干质量 910.00 kg
总质量 960.00 kg
长度 0.30 m
直径 4.10 m
跨度 29.00 m
形状 Box + pan
制造商 SPXS
平台类型 Starlink V2MD
阶段状态 In Orbit
所有者/国家 SPXS/US

Most Searched